Regional Weather Roundup
Issued by NWS Memphis, TN

Home | Current Version | Previous Version | Text Only | Print | Product List | Glossary On
Versions: 1 2 3 4 5 6 7 8 9 10 11 12 13 14 15 16 17 18 19 20 21 22 23 24 25 26 27 28 29 30 31 32 33 34 35 36 37 38 39 40 41 42 43 44 45 46 47 48 49 50
000
ASUS44 KMEG 251010
RWRMEG
MEMPHIS CWA HOURLY WEATHER ROUNDUP
NATIONAL WEATHER SERVICE MEMPHIS TN
500 AM CDT SAT OCT 25 2014

...WEST TENNESSEE...

CITY           SKY/WX    TMP DP  RH WIND       PRES   REMARKS
MEMPHIS INTL   CLEAR     57  53  86 CALM      30.09R
NWS MEMPHIS      N/A     52 N/A N/A MISG        N/A
JACKSON        CLOUDY    51  49  92 S3        30.08S
LEXINGTON      CLOUDY    45  45 100 CALM      30.08R
SAVANNAH       CLEAR     43  43 100 CALM      30.10R
DYERSBURG      CLEAR     52  43  71 S3        30.08S
UNION CITY     CLEAR     48  48 100 S5        30.05S
PARIS          MOCLDY    52  48  87 S6        30.06F
HUNTINGDON     PTCLDY    49  48  96 CALM      30.08S


...EASTERN ARKANSAS...

CITY           SKY/WX    TMP DP  RH WIND       PRES   REMARKS
JONESBORO      CLEAR     57  55  93 SW6       30.06S
WEST MEMPHIS   CLEAR     53  53 100 S3        30.08R
BATESVILLE     CLEAR     57  54  88 CALM      30.07R
NEWPORT        CLEAR     55  54  97 S6        30.08S
WALNUT RIDGE   CLEAR     54  52  94 S3        30.06R
BLYTHEVILLE    CLEAR     57  54  89 S7        30.06S
SEARCY         CLEAR     52  52 100 CALM      30.09S FOG
STUTTGART      CLEAR     57  52  82 SW6       30.10S
PINE BLUFF     CLEAR     56  53  90 SW3       30.10S
MONTICELLO     CLEAR     58  53  84 W6        30.11R


...NORTH MISSISSIPPI...

CITY           SKY/WX    TMP DP  RH WIND       PRES   REMARKS
TUPELO         CLEAR     50  48  93 CALM      30.10S
OXFORD         CLEAR     48  48 100 CALM      30.12R
OLIVE BRANCH   CLEAR     52  52 100 CALM      30.10R
TUNICA         CLEAR     52  52 100 S3        30.11R FOG
CLARKSDALE     CLEAR     55  55 100 CALM      30.11R
CORINTH        CLEAR     46  45  93 CALM      30.09S
GRENADA          N/A    N/A N/A N/A MISG        N/A
GREENWOOD      CLEAR     48  46  93 CALM      30.12S
COLUMBUS       CLEAR     44  44  97 CALM      30.10S
STARKVILLE     FAIR      45  45 100 CALM      30.11R
GOLDEN TRIANGL CLEAR    N/A N/A N/A CALM      30.10R


...SOUTHEAST MISSOURI...

CITY           SKY/WX    TMP DP  RH WIND       PRES   REMARKS
WEST PLAINS    CLEAR     58  56  93 W9        30.07R
POPLAR BLUFF   CLEAR     56  53  90 SW3       30.03S FOG
CAPE GIRARDEAU CLEAR     52  50  93 CALM      30.02F


...NORTHWEST ALABAMA...

CITY           SKY/WX    TMP DP  RH WIND       PRES   REMARKS
MUSCLE SHOALS  CLEAR     45  42  89 CALM      30.11R


...MIDDLE TENNESSEE...

CITY           SKY/WX    TMP DP  RH WIND       PRES   REMARKS
NASHVILLE      PTCLDY    46  44  93 CALM      30.09S
CLARKSVILLE    PTCLDY    46  45  96 CALM      30.06F FOG
COLUMBIA       CLEAR    N/A N/A N/A CALM      30.08R


...WESTERN KENTUCKY...

CITY           SKY/WX    TMP DP  RH WIND       PRES   REMARKS
PADUCAH        CLOUDY    58  53  84 SW8       30.03R
FORT CAMPBELL  CLEAR     49  49 100 S3        30.05F


...CENTRAL ARKANSAS...

CITY           SKY/WX    TMP DP  RH WIND       PRES   REMARKS
LITTLE ROCK    PTCLDY    58  54  86 CALM      30.09S


SKY/WX REPORTED AS FAIR MEANS FEW OR NO CLOUDS BELOW
12 THOUSAND FEET.




USA.gov is the U.S. government's official web portal to all federal, state and local government web resources and services.